Volver al catálogo

BREEZE-M DEB

ActivoHEO
NORAD 36594·DEBRIS·🇷🇺 Russia

Lanzado Jun 3, 2010 desde Baikonur Cosmodrome

Loading…

Próximos Pases (próximas 24 horas)

TLE

ActualizadoSource: Space-Track

Época: Sep 14, 2026, 09:51 UTC

1 36594U 10025C   26257.41067053  .00005760  00000-0  75114-3 0  9992
2 36594  49.3686 259.3943 5294490  59.8293 342.2224  5.15788184293852

Sigue BREEZE-M DEB en tiempo real con AllMySat

Download on the App Store